User: anonymous   Login
Location: Unspecified
(0.0000°N, 0.0000°E)
Time: 22:09:52
(UTC+00:00)
Language:

SINAH 1 - Orbit

View from above orbital plane
View from above orbital plane
View from above satellite
View from above satellite

Ground track
Ground track

The orbit data is extracted from the following two-line orbital elements,

1 28893U 05043D   24110.22813206  .00001557  00000-0  31534-3 0  9991
2 28893  98.1846 234.5228 0014077 224.1892 135.8186 14.62618852985378
Epoch (UTC): 19 April 2024 05:28:30
Eccentricity: 0.0014077
inclination: 98.1846°
perigee height: 675 km
apogee height: 694 km
right ascension of ascending node: 234.5228°
argument of perigee: 224.1892°
revolutions per day: 14.62618852
mean anomaly at epoch: 135.8186°
orbit number at epoch: 98537

The dashed part of the orbit path shows where the satellite is in the earth's shadow,  

DLR